Miscellaneous Local Product
Issued by NWS Hastings, NE

Home | Current Version | Previous Version | Text Only | Print | Product List | Glossary Off
Versions: 1 2 3 4 5 6 7 8 9 10 11 12 13 14 15 16 17 18 19 20 21 22 23 24 25 26 27 28 29 30 31 32 33 34 35 36 37 38 39 40 41 42 43 44 45 46 47 48 49 50

000
AXUS43 KGID 201502
MISGRI

GID CWA HOURLY WEATHER ROUNDUP
NATIONAL WEATHER SERVICE HASTINGS NE
1000 AM CDT MON OCT 20 2014

NOTE: "FAIR" INDICATES FEW OR NO CLOUDS BELOW 12,000 FEET WITH NO
SIGNIFICANT WEATHER AND/OR OBSTRUCTIONS TO VISIBILITY.

...SOUTH CENTRAL NEBRASKA...

CITY           SKY/WX    TMP DP  RH WIND       PRES   REMARKS
GRAND ISLAND   SUNNY     53  43  68 N6        30.14R
HASTINGS       SUNNY     55  42  61 NE9       30.13R
KEARNEY        SUNNY     54  43  66 N5        30.15R
ORD            SUNNY     51  42  71 N3        30.14R
YORK           SUNNY     54  45  71 NE5       30.12R
AURORA         SUNNY     54  43  65 CALM      30.12R
LEXINGTON      SUNNY     51  44  79 CALM      30.14R
HOLDREGE       SUNNY     54  44  71 CALM      30.13R
HEBRON         SUNNY     55  45  67 N3        30.11R

...NEBRASKA PANHANDLE...

CITY           SKY/WX    TMP DP  RH WIND       PRES   REMARKS
CHADRON        SUNNY     45  41  86 CALM      30.07S
ALLIANCE       SUNNY     46  40  79 SE3       30.12S
SCOTTSBLUFF    SUNNY     47  39  74 SE6       30.12S
SIDNEY         SUNNY     55  44  66 SW5       30.15R

...WESTERN AND NORTH CENTRAL NEBRASKA...

CITY           SKY/WX    TMP DP  RH WIND       PRES   REMARKS
VALENTINE      SUNNY     49  38  65 SW3       30.13R
AINSWORTH      SUNNY     51  42  73 CALM      30.14R
ONEILL         SUNNY     53  43  69 NE3       30.14R
BROKEN BOW     SUNNY     52  42  69 CALM      30.14R
IMPERIAL       SUNNY     51  39  63 CALM      30.16R
NORTH PLATTE   SUNNY     46  39  76 W3        30.15R
MCCOOK         SUNNY     49  42  77 SW5       30.15R

...EASTERN NEBRASKA...

CITY           SKY/WX    TMP DP  RH WIND       PRES   REMARKS
NORFOLK        SUNNY     51  42  71 CALM      30.12R
SO SIOUX CITY  SUNNY     52  44  74 W6        30.11R
TEKAMAH        SUNNY     54  44  69 N5        30.11R
COLUMBUS       SUNNY     54  43  66 CALM      30.13R
ALBION         SUNNY     48  40  74 NW5       30.13R
OMAHA EPPLEY   SUNNY     53  45  74 N6        30.11R
OFFUTT AFB     SUNNY     55  53  94 CALM      30.09R
MILLARD        SUNNY     55  46  71 NW3       30.09S
LINCOLN        SUNNY     55  46  71 N3        30.12R
NEBRASKA CITY  SUNNY     58  42  55 N6        30.09R
BEATRICE       SUNNY     57  47  70 NE6       30.10R
FALLS CITY     SUNNY     60  48  64 NE6       30.07R

...NORTHERN KANSAS...

CITY           SKY/WX    TMP DP  RH WIND       PRES   REMARKS
GOODLAND       SUNNY     55  46  71 W3        30.18R
HILL CITY      SUNNY     54  47  77 CALM      30.14R
NORTON         SUNNY     55  45  67 N3        30.13
PHILLIPSBURG   SUNNY     57  48  72 W3        30.13R
SMITH CENTER   SUNNY     54  46  76 CALM      30.12R
BELOIT         SUNNY     55  52  88 CALM      30.10S
HAYS           SUNNY     55  46  71 CALM      30.12S
RUSSELL        SUNNY     56  51  84 N6        30.10R
CONCORDIA      SUNNY     57  48  72 N3        30.10R
SALINA         SUNNY     59  53  80 NW3       30.10R
TOPEKA         SUNNY     59  53  80 W5        30.08R



USA.gov is the U.S. government's official web portal to all federal, state and local government web resources and services.